EN

Hourly Weather Dziadowice

Today, 31 October, Saturday

Time Temperature Precipitation Wind Pressure Humidity
00:00 +9°C° 0 mm 1 mps 749 mmHg 95%
01:00 +9°C° 0 mm 1 mps 749 mmHg 94%
02:00 +9°C° 0 mm 1 mps 750 mmHg 94%
03:00 +9°C° 0 mm 1 mps 750 mmHg 94%
04:00 +8°C° 0 mm 2 mps 750 mmHg 94%
05:00 +7°C° 0 mm 2 mps 751 mmHg 94%
06:00 +7°C° 0 mm 2 mps 751 mmHg 94%
07:00 +7°C° 0 mm 1 mps 752 mmHg 92%
08:00 +8°C° 0 mm 1 mps 753 mmHg 87%
09:00 +9°C° 0 mm 1 mps 753 mmHg 82%
10:00 +10°C° 0 mm 1 mps 753 mmHg 76%
11:00 +11°C° 0 mm 1 mps 753 mmHg 72%
12:00 +12°C° 0 mm 1 mps 753 mmHg 68%
13:00 +12°C° 0 mm 1 mps 753 mmHg 64%
14:00 +12°C° 0 mm 1 mps 753 mmHg 66%
15:00 +11°C° 0 mm 1 mps 753 mmHg 68%
16:00 +11°C° 0 mm 1 mps 753 mmHg 71%
17:00 +9°C° 0 mm 2 mps 753 mmHg 73%
18:00 +8°C° 0 mm 2 mps 753 mmHg 76%
19:00 +8°C° 0 mm 2 mps 753 mmHg 78%
20:00 +7°C° 0 mm 2 mps 753 mmHg 79%
21:00 +7°C° 0 mm 3 mps 753 mmHg 80%
22:00 +7°C° 0 mm 3 mps 753 mmHg 80%
23:00 +5°C° 0 mm 3 mps 753 mmHg 82%

Tomorrow, 1 November, Sunday

Time Temperature Precipitation Wind Pressure Humidity
00:00 +5°C° 0 mm 3 mps 753 mmHg 83%
01:00 +5°C° 0 mm 3 mps 753 mmHg 84%
02:00 +5°C° 0 mm 3 mps 752 mmHg 84%
03:00 +4°C° 0 mm 4 mps 752 mmHg 84%
04:00 +4°C° 0 mm 4 mps 751 mmHg 83%
05:00 +4°C° 0 mm 4 mps 751 mmHg 82%
06:00 +4°C° 0 mm 4 mps 751 mmHg 80%
07:00 +4°C° 0 mm 4 mps 751 mmHg 79%
08:00 +5°C° 0 mm 4 mps 750 mmHg 77%
09:00 +7°C° 0 mm 4 mps 750 mmHg 76%
10:00 +8°C° 0 mm 4 mps 750 mmHg 74%
11:00 +10°C° 0 mm 4 mps 749 mmHg 74%
12:00 +12°C° 0 mm 4 mps 749 mmHg 74%
13:00 +13°C° 0 mm 4 mps 748 mmHg 73%
14:00 +13°C° 0 mm 4 mps 748 mmHg 77%
15:00 +12°C° 0 mm 3 mps 748 mmHg 80%
16:00 +12°C° 0 mm 3 mps 747 mmHg 83%
17:00 +11°C° 0.3 mm 3 mps 747 mmHg 86%
18:00 +11°C° 0.3 mm 4 mps 747 mmHg 88%
19:00 +11°C° 0.3 mm 4 mps 746 mmHg 91%
20:00 +11°C° 1.1 mm 4 mps 746 mmHg 92%
21:00 +11°C° 1.1 mm 4 mps 746 mmHg 93%
22:00 +11°C° 1.1 mm 4 mps 746 mmHg 94%
23:00 +11°C° 0.3 mm 4 mps 745 mmHg 93%

Day after tomorrow, 2 November, Monday

Time Temperature Precipitation Wind Pressure Humidity
00:00 +11°C° 0.3 mm 4 mps 745 mmHg 93%
01:00 +11°C° 0.3 mm 4 mps 745 mmHg 93%
02:00 +11°C° 0.3 mm 4 mps 745 mmHg 93%
03:00 +12°C° 0.3 mm 4 mps 745 mmHg 93%
04:00 +12°C° 0.3 mm 4 mps 745 mmHg 93%
05:00 +12°C° 0 mm 4 mps 745 mmHg 93%
06:00 +12°C° 0 mm 4 mps 745 mmHg 93%
07:00 +12°C° 0 mm 4 mps 746 mmHg 93%
08:00 +12°C° 0 mm 4 mps 746 mmHg 92%
09:00 +13°C° 0 mm 4 mps 746 mmHg 92%
10:00 +13°C° 0 mm 3 mps 746 mmHg 91%
11:00 +13°C° 0.3 mm 3 mps 746 mmHg 92%
12:00 +13°C° 0.3 mm 3 mps 746 mmHg 93%
13:00 +13°C° 0.3 mm 3 mps 747 mmHg 94%
14:00 +13°C° 0.1 mm 3 mps 747 mmHg 94%
15:00 +13°C° 0.1 mm 3 mps 747 mmHg 95%
16:00 +13°C° 0.1 mm 4 mps 747 mmHg 95%
17:00 +13°C° 0 mm 3 mps 747 mmHg 95%
18:00 +13°C° 0 mm 3 mps 747 mmHg 95%
19:00 +13°C° 0 mm 3 mps 747 mmHg 95%
20:00 +13°C° 0 mm 3 mps 747 mmHg 94%
21:00 +13°C° 0 mm 3 mps 747 mmHg 93%
22:00 +14°C° 0 mm 4 mps 747 mmHg 92%
23:00 +14°C° 0 mm 4 mps 748 mmHg 91%

3 November, Tuesday

Time Temperature Precipitation Wind Pressure Humidity
00:00 +13°C° 0 mm 4 mps 748 mmHg 91%
01:00 +13°C° 0 mm 4 mps 748 mmHg 91%
02:00 +13°C° 0 mm 4 mps 748 mmHg 90%
03:00 +14°C° 0 mm 4 mps 748 mmHg 90%
04:00 +14°C° 0 mm 4 mps 748 mmHg 90%
05:00 +14°C° 0 mm 3 mps 749 mmHg 91%
06:00 +13°C° 0 mm 3 mps 749 mmHg 91%
07:00 +13°C° 0 mm 3 mps 749 mmHg 92%
08:00 +14°C° 0 mm 4 mps 750 mmHg 87%
09:00 +14°C° 0 mm 5 mps 751 mmHg 83%
10:00 +14°C° 0 mm 5 mps 751 mmHg 78%
11:00 +14°C° 0 mm 5 mps 752 mmHg 72%
12:00 +14°C° 0 mm 5 mps 752 mmHg 67%
13:00 +14°C° 0 mm 5 mps 752 mmHg 61%
14:00 +13°C° 0 mm 4 mps 753 mmHg 63%
15:00 +12°C° 0 mm 4 mps 753 mmHg 65%
16:00 +12°C° 0 mm 3 mps 753 mmHg 67%
17:00 +11°C° 0 mm 3 mps 754 mmHg 69%
18:00 +11°C° 0 mm 3 mps 754 mmHg 71%
19:00 +10°C° 0 mm 3 mps 755 mmHg 73%
20:00 +10°C° 0 mm 3 mps 755 mmHg 74%
21:00 +9°C° 0 mm 2 mps 755 mmHg 76%
22:00 +9°C° 0 mm 2 mps 756 mmHg 77%
23:00 +9°C° 0 mm 2 mps 756 mmHg 77%

4 November, Wednesday

Time Temperature Precipitation Wind Pressure Humidity
00:00 +9°C° 0 mm 2 mps 756 mmHg 77%
01:00 +8°C° 0 mm 2 mps 756 mmHg 78%
02:00 +8°C° 0 mm 2 mps 756 mmHg 78%
03:00 +8°C° 0 mm 2 mps 756 mmHg 79%
04:00 +8°C° 0 mm 2 mps 756 mmHg 79%
05:00 +8°C° 0 mm 2 mps 757 mmHg 81%
06:00 +7°C° 0 mm 2 mps 757 mmHg 83%
07:00 +7°C° 0 mm 2 mps 757 mmHg 85%
08:00 +8°C° 0 mm 2 mps 757 mmHg 80%
09:00 +8°C° 0 mm 3 mps 757 mmHg 75%
10:00 +9°C° 0 mm 3 mps 758 mmHg 70%
11:00 +10°C° 0 mm 3 mps 758 mmHg 67%
12:00 +10°C° 0 mm 3 mps 758 mmHg 64%
13:00 +11°C° 0 mm 3 mps 758 mmHg 61%
14:00 +10°C° 0 mm 3 mps 758 mmHg 64%
15:00 +9°C° 0 mm 2 mps 758 mmHg 66%
16:00 +9°C° 0 mm 2 mps 758 mmHg 69%
17:00 +8°C° 0 mm 2 mps 759 mmHg 71%
18:00 +7°C° 0 mm 2 mps 759 mmHg 73%
19:00 +7°C° 0 mm 2 mps 760 mmHg 75%
20:00 +7°C° 0 mm 1 mps 760 mmHg 76%
21:00 +7°C° 0 mm 1 mps 760 mmHg 78%
22:00 +7°C° 0 mm 1 mps 760 mmHg 79%
23:00 +7°C° 0 mm 1 mps 760 mmHg 80%

5 November, Thursday

Time Temperature Precipitation Wind Pressure Humidity
00:00 +6°C° 0 mm 1 mps 761 mmHg 81%
01:00 +6°C° 0 mm 1 mps 761 mmHg 82%
02:00 +6°C° 0 mm 1 mps 761 mmHg 83%
03:00 +5°C° 0 mm 1 mps 761 mmHg 85%
04:00 +5°C° 0 mm 1 mps 761 mmHg 86%
05:00 +5°C° 0 mm 1 mps 761 mmHg 87%
06:00 +5°C° 0 mm 1 mps 762 mmHg 88%
07:00 +4°C° 0 mm 1 mps 762 mmHg 89%
08:00 +5°C° 0 mm 1 mps 762 mmHg 84%
09:00 +6°C° 0 mm 2 mps 762 mmHg 79%
10:00 +7°C° 0 mm 2 mps 763 mmHg 74%
11:00 +7°C° 0 mm 2 mps 763 mmHg 71%
12:00 +8°C° 0 mm 3 mps 763 mmHg 69%
13:00 +9°C° 0 mm 3 mps 763 mmHg 67%
14:00 +8°C° 0 mm 3 mps 763 mmHg 72%
15:00 +7°C° 0 mm 2 mps 763 mmHg 76%
16:00 +7°C° 0 mm 2 mps 762 mmHg 80%
17:00 +6°C° 0 mm 2 mps 763 mmHg 84%
18:00 +6°C° 0 mm 2 mps 763 mmHg 87%
19:00 +5°C° 0 mm 2 mps 763 mmHg 90%
20:00 +5°C° 0 mm 2 mps 763 mmHg 91%
21:00 +5°C° 0 mm 2 mps 763 mmHg 92%
22:00 +4°C° 0 mm 2 mps 764 mmHg 93%
23:00 +4°C° 0 mm 2 mps 764 mmHg 94%
Show more